Weather History for Sandspit, BC

Change the Weather History Date:

Sunday, October 27, 2013

  Actual Average Record
Temperature  
Mean Temperature 50 °F -  
Max Temperature 55 °F 49 °F 55 °F (2002)
Min Temperature 45 °F 41 °F 33 °F (2001)
Degree Days  
Heating Degree Days 15    
Moisture  
Dew Point 43 °F    
Average Humidity 76    
Maximum Humidity 85    
Minimum Humidity 58    
Precipitation  
Precipitation 0.00 in 0.47 in - ()
Sea Level Pressure  
Sea Level Pressure 30.45 in    
Wind  
Wind Speed 10 mph ()    
Max Wind Speed 18 mph    
Max Gust Speed 22 mph    
Visibility 9.0 miles    
Events      
Averages and records for this station are not official NWS values.
T = Trace of Precipitation, MM = Missing Value Source: Averaged Metar Reports

Daily Weather History Graph

Daily Weather History Graph

Search for Another Location

Airport:

Trip Planner

Search our weather history database for the weather conditions in past years. The results will help you decide how hot, cold, wet, or windy it might be!

Date:

Astronomy

Oct. 27, 2013 Rise Set
Actual Time 8:37 AM PDT 6:24 PM PDT
Civil Twilight 8:00 AM PDT 7:00 PM PDT
Nautical Twilight 7:19 AM PDT 7:41 PM PDT
Astronomical Twilight 6:39 AM PDT 8:21 PM PDT
Moon 12:46 AM PDT (10/27) 3:27 PM PDT (10/27)
Length of Visible Light 10h 59m
Length of Day
9h 47m
Last Quarter, 42% of the Moon is Illuminated
Oct 27
Last Quarter
Nov 3
New
Nov 9
First Quarter
Nov 17
Full
Nov 25
Last Quarter

Hourly Weather History & Observations

Time (PDT) Temp. Windchill Dew Point Humidity Pressure Visibility Wind Dir Wind Speed Gust Speed Precip Events Conditions
12:00 AM 46.4 °F 41.1 °F 39.2 °F 76% 30.43 in 9.0 mi NW 11.5 mph - N/A   Clear
1:00 AM 46.4 °F 41.1 °F 39.2 °F 76% 30.45 in 9.0 mi WNW 11.5 mph - N/A   Clear
2:00 AM 49 °F - 40 °F 62% 30.44 in - NW 5.8 mph - -  
2:00 AM 48.2 °F - 39.2 °F 71% 30.45 in 9.0 mi WNW 16.1 mph - N/A   Clear
3:00 AM 48.2 °F - 39.2 °F 71% 30.45 in 9.0 mi WNW 17.3 mph - N/A   Clear
4:00 AM 48.2 °F - 41.0 °F 76% 30.45 in 9.0 mi NW 18.4 mph - N/A   Clear
5:00 AM 49 °F - 42 °F 68% 30.45 in - NNW 8.1 mph - -  
5:00 AM 48.2 °F - 42.8 °F 82% 30.46 in 9.0 mi NNW 16.1 mph 21.9 mph N/A   Clear
6:00 AM 48.2 °F - 42.8 °F 82% 30.45 in 9.0 mi NNW 16.1 mph - N/A   Clear
7:00 AM 48.2 °F - 42.8 °F 82% 30.47 in 9.0 mi NW 15.0 mph 21.9 mph N/A   Clear
8:00 AM 48 °F - 43 °F 77% 30.46 in - NW 4.6 mph - -  
8:00 AM 48.2 °F - 42.8 °F 82% 30.48 in 9.0 mi WNW 15.0 mph - N/A   Clear
9:00 AM 48.2 °F - 42.8 °F 82% 30.48 in 9.0 mi NW 15.0 mph - N/A   Clear
10:00 AM 50.0 °F - 42.8 °F 76% 30.48 in 9.0 mi NW 15.0 mph - N/A   Clear
11:00 AM 50.0 °F - 44.6 °F 82% 30.49 in 9.0 mi NW 15.0 mph 20.7 mph N/A   Clear
12:00 PM 51.8 °F - 44.6 °F 76% 30.48 in 9.0 mi NW 11.5 mph 18.4 mph N/A   Clear
1:00 PM 51.8 °F - 44.6 °F 76% 30.48 in 9.0 mi NNW 13.8 mph - N/A   Partly Cloudy
2:00 PM 54 °F - 44 °F 59% 30.47 in - NNW 5.8 mph - -  
2:00 PM 53.6 °F - 44.6 °F 72% 30.48 in 9.0 mi NNW 10.4 mph - N/A   Scattered Clouds
3:00 PM 53.6 °F - 46.4 °F 77% 30.47 in 9.0 mi NW 12.7 mph - N/A   Partly Cloudy
4:00 PM 55.4 °F - 46.4 °F 72% 30.46 in 9.0 mi NW 11.5 mph - N/A   Clear
5:00 PM 54 °F - 44 °F 58% 30.45 in - NNW 4.6 mph - -  
5:00 PM 53.6 °F - 44.6 °F 72% 30.46 in 9.0 mi NNW 8.1 mph - N/A   Clear
6:00 PM 51.8 °F - 44.6 °F 76% 30.45 in 9.0 mi NW 6.9 mph - N/A   Clear
7:00 PM 50.0 °F - 44.6 °F 82% 30.43 in 9.0 mi WNW 6.9 mph - N/A   Clear
8:00 PM 46 °F - 43 °F 84% 30.42 in - WSW 1.2 mph - -  
8:00 PM 48.2 °F - 41.0 °F 76% 30.43 in 9.0 mi WNW 9.2 mph - N/A   Clear
9:00 PM 48.2 °F - 42.8 °F 82% 30.42 in 9.0 mi WNW 8.1 mph - N/A   Clear
10:00 PM 48.2 °F - 41.0 °F 76% 30.41 in 9.0 mi West 9.2 mph - N/A   Clear
11:00 PM 45 °F - 42 °F 85% 30.39 in - WSW 2.3 mph - -  
11:00 PM 48.2 °F - 41.0 °F 76% 30.40 in 9.0 mi West 6.9 mph - N/A   Clear